Home   Weather   Bellevue   Past weeks
Flag for USA

Past Weather in Bellevue, USA — Yesterday and Last 2 Weeks

Currently: 61 °F. Sunny. (Weather station: Millard Airport, USA). See more current weather

Past Weather in Bellevue — Graph

°F

Bellevue Temperature Yesterday

Maximum temperature yesterday: 78 °F (at 4:55 pm)
Minimum temperature yesterday: 51 °F (at 5:55 am)
Average temperature yesterday: 68 °F

High & Low Weather Summary for the Past Weeks

 TemperatureHumidityPressure
High84 °F (May 17, 3:55 pm)98% (May 20, 5:15 am)30.24 "Hg (May 20, 5:15 am)
Low49 °F (May 22, 2:55 am)25% (May 27, 3:55 pm)29.37 "Hg (May 26, 4:15 am)
Average67 °F62%29.84 "Hg
* Reported May 15 6:15 am — May 30 6:35 am, Bellevue. Weather by CustomWeather, © 2024

Note: Actual official high and low records may vary slightly from our data, if they occured in-between our weather recording intervals... More about our weather records

Bellevue Weather History for the Previous 24 Hours

Scroll right to see more
 ConditionsComfort  
Time TempWeatherWind HumidityBarometerVisibility
6:35 am
Thu, May 30
61 °FSunny.9 mph65%30.05 "Hg10 mi
6:15 am61 °FScattered clouds.7 mph63%30.05 "Hg10 mi
5:55 am61 °FSunny.9 mph65%30.05 "Hg10 mi
5:35 am61 °FPassing clouds.7 mph63%30.06 "Hg10 mi
5:15 am62 °FPassing clouds.8 mph62%30.06 "Hg10 mi
4:55 am62 °FOvercast.9 mph62%30.06 "Hg10 mi
4:35 am61 °FPassing clouds.7 mph64%30.07 "Hg10 mi
4:15 am61 °FClear.7 mph65%30.07 "Hg10 mi
3:35 am63 °FClear.7 mph59%30.07 "Hg10 mi
2:55 am64 °FClear.8 mph57%30.06 "Hg10 mi
2:15 am64 °FClear.9 mph56%30.07 "Hg10 mi
1:55 am65 °FClear.10 mph56%30.08 "Hg10 mi
1:35 am65 °FClear.9 mph57%30.08 "Hg10 mi
12:55 am65 °FClear.7 mph56%30.09 "Hg10 mi
12:15 am67 °FClear.8 mph54%30.08 "Hg10 mi
11:55 pm
Wed, May 29
67 °FClear.9 mph52%30.08 "Hg10 mi
11:35 pm68 °FClear.10 mph51%30.08 "Hg10 mi
11:15 pm69 °FClear.9 mph51%30.07 "Hg10 mi
10:55 pm69 °FClear.8 mph50%30.08 "Hg10 mi
10:35 pm70 °FClear.8 mph50%30.07 "Hg10 mi
10:15 pm70 °FClear.8 mph49%30.08 "Hg10 mi
9:55 pm71 °FClear.8 mph47%30.06 "Hg10 mi
9:35 pm72 °FClear.8 mph46%30.05 "Hg10 mi
9:15 pm72 °FClear.7 mph46%30.05 "Hg10 mi
8:35 pm74 °FSunny.8 mph43%30.05 "Hg10 mi
7:55 pm75 °FSunny.10 mph42%30.06 "Hg10 mi
7:35 pm76 °FSunny.12 mph40%30.06 "Hg10 mi
7:15 pm77 °FSunny.9 mph39%30.06 "Hg10 mi
6:55 pm77 °FSunny.9 mph39%30.07 "Hg10 mi
6:35 pm77 °FSunny.8 mph39%30.08 "Hg10 mi
6:15 pm78 °FSunny.12 mph38%30.09 "Hg10 mi
5:55 pm78 °FSunny.12 mph38%30.09 "Hg10 mi
5:35 pm78 °FSunny.7 mph37%30.09 "Hg10 mi
4:55 pm78 °FSunny.8 mph36%30.10 "Hg10 mi
4:15 pm77 °FSunny.9 mph37%30.11 "Hg10 mi
3:55 pm77 °FSunny.10 mph37%30.12 "Hg10 mi
3:35 pm77 °FSunny.5 mph36%30.13 "Hg10 mi
2:55 pm76 °FSunny.7 mph37%30.14 "Hg10 mi
2:35 pm75 °FSunny.9 mph37%30.15 "Hg10 mi
2:15 pm75 °FSunny.6 mph38%30.15 "Hg10 mi
1:55 pm75 °FSunny.8 mph41%30.16 "Hg10 mi
1:35 pm75 °FSunny.8 mph40%30.17 "Hg10 mi
1:15 pm74 °FSunny.9 mph42%30.17 "Hg10 mi
12:55 pm74 °FSunny.6 mph43%30.18 "Hg10 mi
12:35 pm72 °FSunny.7 mph44%30.19 "Hg10 mi
12:15 pm72 °FSunny.6 mph44%30.19 "Hg10 mi
11:55 am71 °FSunny.7 mph45%30.20 "Hg10 mi
11:35 am71 °FSunny.7 mph46%30.21 "Hg10 mi
11:15 am70 °FScattered clouds.7 mph45%30.21 "Hg10 mi
10:55 am70 °FScattered clouds.8 mph47%30.21 "Hg10 mi
10:35 am69 °FScattered clouds.7 mph48%30.22 "Hg10 mi
10:15 am68 °FPartly sunny.8 mph49%30.23 "Hg10 mi
9:55 am67 °FOvercast.8 mph51%30.23 "Hg10 mi
9:15 am65 °FScattered clouds.8 mph54%30.23 "Hg10 mi
8:35 am63 °FScattered clouds.7 mph58%30.23 "Hg10 mi
8:15 am62 °FScattered clouds.6 mph59%30.23 "Hg10 mi
7:35 am60 °FSunny.5 mph66%30.24 "Hg10 mi
Weather by CustomWeather, © 2024

See weather overview